STARLINK-31234, 59043

Orbit data source: Space-Track

STARLINK-31234, 59043 is a payload satellite owned by SpaceX/Seattle (US) in LEO that was launched on Sun, 25 Feb 2024 UTC via an FALCON 9 launch vehicle from the Air Force Eastern Test Range (AFETR). Payload-class satellites include a variety of spacecraft equipped with specific instruments for various scientific and technological missions. These include communications satellites like Starlink; space stations such as the ISS; scientific satellites like the Hubble; Earth observation satellites from companies like Planet Labs, Umbra, and HawkEye 360; GPS; miniature CubeSats for education and research; and military/defense satellites.

Loading next visibility...
Identifier
59043, 2024-038W
Orbit
LEO
Country
Flag of USUS
Related business
Manufacturer
SpaceX/Seattle
Mission
Operational Commercial Communications
Bus & Motor
STARLINK V2M, Unknown motor
Mass
730 kg wet, ~700 kg dry
Launch date (UTC)
2024-02-25 (2 years ago)
Launch vehicle
FALCON 9
Launch site
Air Force Eastern Test Range (AFETR)
Object type
Payload
Rocket body
Debris
Shape & HBR
Box + 2 Pan, 17.7 m
Radar Cross Section
33.884 m², Large (>1 m²)

Expand to show TLE details & history
Last TLE update: 2 days ago

TLE from 2 days ago
0 STARLINK-31234
1 59043U 24038W   26171.00313994  .00001367  00000-0  59133-4 0  9996
2 59043  43.0013 165.9322 0001214 294.5178  65.5547 15.27611236130332
Epoch: 2026-06-20T00:04Z
TLE epoch observation values (Epoch: 2026-06-20T00:04:31.290Z)
Latitude
-0.00003°
Longitude
-103.42222°
Altitude
482.387 km
Speed
7.626 km/s
True Right ascension
11h 03m 43s
True Declination
0° 00' 00"
Sunlit
Object was in daylight at epoch
Visualization orbit readout
Latitude
Unknown
Longitude
Unknown
Altitude
Unknown
Speed
Unknown
Apparent Right ascension
Unknown
Apparent Declination
Unknown
Sunlit
N/A
Visualization observer readout
Local Sidereal Time
21:37:14
Azimuth
Unknown
Elevation
Unknown
Doppler factor
Unknown
Orbital elements
Apogee altitude
485.734 km
Perigee altitude
484.067 km
Semi-major axis
6,863.038 km
Eccentricity
0.00012
Inclination
43.0013°
RAAN
165.9322°
Arg. of periapsis
294.5178°
True anomaly
65.56737°
Mean anomaly
65.5547°
Eccentric anomaly
65.56103°
Mean motion
3.81741 °/min
Orbital period
94.3 mins
BSTAR
0.000059133
Loading maneuver chart data...
Computing Atmospheric mass density...
Loading historical data...
Loading historical data...
Loading historical data...
Loading historical data...
Loading historical data...
Loading historical data...
Loading historical data...

Documentation

Showing up to 5 results
|